This is the latest recevied weather packets stored in our database for station/object S53BL-10. If no packets are shown the sender has not sent any weather packets the latest 10 day(s).
| Time | Temp. | Humidity | Pressure | Rain* | Wind** | Luminosity | Snow |
|---|---|---|---|---|---|---|---|
| 1777753171 | 16.11° C | 44% | 1017.4 hPa | - | - | - | - |
| 1777752270 | 16.11° C | 44% | 1017.5 hPa | - | - | - | - |
| 1777751369 | 16.67° C | 44% | 1017.4 hPa | - | - | - | - |
| 1777750469 | 16.67° C | 43% | 1017.3 hPa | - | - | - | - |
| 1777749568 | 17.22° C | 44% | 1017.1 hPa | - | - | - | - |
| 1777748667 | 17.22° C | 44% | 1017.2 hPa | - | - | - | - |
| 1777747766 | 17.78° C | 44% | 1017 hPa | - | - | - | - |
| 1777746865 | 18.33° C | 43% | 1016.8 hPa | - | - | - | - |
| 1777745965 | 18.89° C | 40% | 1016.7 hPa | - | - | - | - |
| 1777745064 | 20° C | 38% | 1016.4 hPa | - | - | - | - |
| 1777744163 | 21.11° C | 35% | 1016.4 hPa | - | - | - | - |
| 1777743262 | 21.67° C | 34% | 1016.3 hPa | - | - | - | - |
| 1777742361 | 22.22° C | 30% | 1016.4 hPa | - | - | - | - |
| 1777741460 | 22.78° C | 27% | 1016.3 hPa | - | - | - | - |
| 1777740559 | 23.33° C | 26% | 1016.5 hPa | - | - | - | - |
| 1777739659 | 23.89° C | 25% | 1016.4 hPa | - | - | - | - |
| 1777738758 | 23.89° C | 25% | 1016.5 hPa | - | - | - | - |
| 1777737857 | 24.44° C | 24% | 1016.6 hPa | - | - | - | - |
| 1777736956 | 23.89° C | 25% | 1016.8 hPa | - | - | - | - |
| 1777736056 | 25° C | 23% | 1016.9 hPa | - | - | - | - |
| 1777735155 | 25.56° C | 23% | 1016.9 hPa | - | - | - | - |
| 1777734253 | 25.56° C | 22% | 1017.1 hPa | - | - | - | - |
| 1777733352 | 26.11° C | 22% | 1017.3 hPa | - | - | - | - |
| 1777732452 | 27.22° C | 21% | 1017.5 hPa | - | - | - | - |
| 1777731551 | 28.33° C | 20% | 1017.6 hPa | - | - | - | - |
* Rain since midnight (hover to see other rain measurements)
** Current wind speed in m/s (hover to see current wind gust speed)